FW7828 Weather Reports


time (UTC)temp
F
wind
direction
speed
knots
gust
knots
rain 1hr
in
rain 24hr
in
rain mn
in
humidity
%
barometer
mb
20260902232636 84 94 0.9 1.7 0.00 0.00 0.00 88 1015.7
20260902232136 85 80 0.0 0.0 0.00 0.00 0.00 88 1015.9
20260902231636 85 92 0.9 1.7 0.00 0.00 0.00 87 1016.2
20260902231130 85 100 0.9 1.7 0.00 0.00 0.00 88 1016.2
20260902230626 86 129 1.7 1.7 0.00 0.00 0.00 87 1016.2
20260902230124 86 123 1.7 1.7 0.00 0.00 0.00 85 1015.8
20260902225620 85 123 1.7 2.6 0.00 0.00 0.00 86 1015.8
20260902225119 85 80 0.0 0.0 0.00 0.00 0.00 86 1015.9
20260902224618 85 125 0.9 0.9 0.00 0.00 0.00 86 1015.9
20260902224114 85 87 0.9 0.9 0.00 0.00 0.00 87 1015.7
20260902223610 85 22 0.0 0.0 0.00 0.00 0.00 86 1015.7
20260902223109 85 13 1.7 1.7 0.00 0.00 0.00 86 1015.7
20260902222608 85 358 0.9 1.7 0.00 0.00 0.00 85 1015.8
20260902222107 85 76 1.7 2.6 0.00 0.00 0.00 85 1015.6
20260902221602 86 62 0.9 0.9 0.00 0.00 0.00 85 1015.5
20260902221101 86 54 0.0 0.0 0.00 0.00 0.00 85 1015.4
20260902220557 86 66 0.9 1.7 0.00 0.00 0.00 84 1015.7
20260902220052 86 76 0.9 1.7 0.00 0.00 0.00 84 1015.5
20260902215548 86 76 0.9 0.9 0.00 0.00 0.00 85 1015.3
20260902215043 86 82 0.9 0.9 0.00 0.00 0.00 85 1015.5
20260902214538 86 35 0.0 0.9 0.00 0.00 0.00 86 1015.6
20260902214037 86 23 0.9 0.9 0.00 0.00 0.00 85 1015.6
20260902213533 86 31 0.0 0.9 0.00 0.00 0.00 85 1015.7
20260902213032 86 25 0.9 0.9 0.00 0.00 0.00 85 1015.6
20260902212528 87 54 0.0 0.0 0.00 0.00 0.00 84 1015.6
20260902212023 87 54 0.0 0.9 0.00 0.00 0.00 82 1015.8
20260902211519 88 36 1.7 1.7 0.00 0.00 0.00 82 1015.5
20260902211015 88 92 1.7 1.7 0.00 0.00 0.00 81 1015.2
20260902210514 89 52 0.0 0.0 0.00 0.00 0.00 82 1015.3
20260902210014 89 49 0.9 0.9 0.00 0.00 0.00 81 1015.2
20260902205508 89 79 0.9 1.7 0.00 0.00 0.00 80 1015.1
20260902205004 89 103 2.6 2.6 0.00 0.00 0.00 79 1014.8
20260902204503 89 84 2.6 4.3 0.00 0.00 0.00 79 1014.6
20260902203958 90 75 1.7 1.7 0.00 0.00 0.00 79 1014.5
20260902203454 92 90 1.7 1.7 0.00 0.00 0.00 76 1014.6
20260902202952 92 134 1.7 1.7 0.00 0.00 0.00 74 1014.6
20260902202449 92 92 0.0 0.0 0.00 0.00 0.00 71 1014.6
20260902201945 93 85 0.9 0.9 0.00 0.00 0.00 74 1014.8
20260902201440 93 18 0.0 0.9 0.00 0.00 0.00 73 1014.7
20260902200940 93 80 0.9 1.7 0.00 0.00 0.00 72 1014.7
20260902200435 93 71 0.9 0.9 0.00 0.00 0.00 73 1014.9
20260902195931 93 132 0.0 0.9 0.00 0.00 0.00 73 1014.9
20260902195426 92 145 0.9 0.9 0.00 0.00 0.00 75 1015.0
20260902194920 92 155 0.0 0.9 0.00 0.00 0.00 73 1015.0
20260902194420 93 152 0.9 0.9 0.00 0.00 0.00 73 1015.3
20260902193915 91 134 0.0 0.9 0.00 0.00 0.00 75 1015.2
20260902193411 91 150 0.0 0.9 0.00 0.00 0.00 75 1015.3
20260902192909 91 314 0.0 0.0 0.00 0.00 0.00 76 1015.4
20260902192409 91 150 0.0 0.0 0.00 0.00 0.00 76 1015.3
20260902191908 91 196 0.0 0.0 0.00 0.00 0.00 75 1015.2
20260902191358 92 143 0.0 0.9 0.00 0.00 0.00 74 1015.5
20260902190858 92 152 0.9 1.7 0.00 0.00 0.00 73 1015.6
20260902190353 92 113 1.7 1.7 0.00 0.00 0.00 72 1015.6
20260902185849 92 208 0.9 0.9 0.00 0.00 0.00 72 1015.6
20260902185345 93 245 0.9 0.9 0.00 0.00 0.00 72 1015.4
20260902184840 92 177 0.9 1.7 0.00 0.00 0.00 71 1015.6
20260902184335 93 122 0.9 0.9 0.00 0.00 0.00 75 1015.5
20260902183831 93 199 0.9 1.7 0.00 0.00 0.00 70 1015.5
20260902183327 93 176 0.9 0.9 0.00 0.00 0.00 70 1015.4
20260902182822 93 183 0.9 1.7 0.00 0.00 0.00 70 1015.7
20260902182319 92 183 1.7 1.7 0.00 0.00 0.00 70 1015.7
20260902181815 93 199 1.7 1.7 0.00 0.00 0.00 70 1015.7
20260902181310 93 122 1.7 1.7 0.00 0.00 0.00 69 1015.6
20260902180804 93 279 0.0 0.9 0.00 0.00 0.00 70 1015.5
20260902180300 91 297 0.9 0.9 0.00 0.00 0.00 73 1015.7
20260902175755 91 144 1.7 2.6 0.00 0.00 0.00 73 1015.6
20260902175250 91 169 1.7 1.7 0.00 0.00 0.00 74 1015.7
20260902174746 92 162 0.9 1.7 0.00 0.00 0.00 72 1015.7
20260902174242 92 126 0.0 0.9 0.00 0.00 0.00 74 1015.8
20260902173737 91 135 0.9 1.7 0.00 0.00 0.00 76 1015.7
20260902173237 91 156 0.9 1.7 0.00 0.00 0.00 76 1015.6
20260902172732 90 148 0.9 1.7 0.00 0.00 0.00 77 1015.7
20260902172232 90 156 1.7 1.7 0.00 0.00 0.00 76 1015.4
20260902171727 90 199 1.7 1.7 0.00 0.00 0.00 76 1016.0
20260902171222 90 19 0.0 0.9 0.00 0.00 0.00 76 1015.7
20260902170718 90 162 2.6 2.6 0.00 0.00 0.00 76 1015.8
20260902170213 90 175 1.7 1.7 0.00 0.00 0.00 77 1015.8
20260902165708 89 166 1.7 2.6 0.00 0.00 0.00 77 1015.8
20260902165202 89 164 1.7 1.7 0.00 0.00 0.00 76 1015.7
20260902164657 89 172 2.6 2.6 0.00 0.00 0.00 76 1015.9
20260902164156 90 151 2.6 2.6 0.00 0.00 0.00 76 1015.6
20260902163652 90 161 1.7 1.7 0.00 0.00 0.00 75 1015.9
20260902163151 90 165 1.7 1.7 0.00 0.00 0.00 74 1016.0
20260902162650 90 201 3.5 5.2 0.00 0.00 0.00 74 1016.0
20260902162144 90 158 1.7 1.7 0.00 0.00 0.00 73 1015.8
20260902161640 90 158 1.7 1.7 0.00 0.00 0.00 72 1016.1
20260902161136 90 171 0.9 0.9 0.00 0.00 0.00 71 1016.0
20260902160632 90 131 1.7 1.7 0.00 0.00 0.00 72 1016.0
20260902160127 90 174 2.6 2.6 0.00 0.00 0.00 73 1015.9
20260902155625 89 150 0.9 1.7 0.00 0.00 0.00 74 1016.2
20260902155124 89 131 0.9 0.9 0.00 0.00 0.00 73 1016.0
20260902154619 88 138 2.6 2.6 0.00 0.00 0.00 73 1016.1
20260902154114 88 175 0.9 0.9 0.00 0.00 0.00 73 1016.0
20260902153613 88 161 1.7 1.7 0.00 0.00 0.00 74 1016.1
20260902153108 86 223 0.9 0.9 0.00 0.00 0.00 77 1016.2
20260902152605 86 176 2.6 2.6 0.00 0.00 0.00 79 1016.1
20260902152100 85 113 1.7 2.6 0.00 0.00 0.00 80 1016.1
20260902151555 86 155 2.6 2.6 0.00 0.00 0.00 81 1016.2
20260902151055 85 91 1.7 2.6 0.00 0.00 0.00 80 1016.4
20260902150550 85 170 2.6 2.6 0.00 0.00 0.00 81 1016.1
20260902150046 85 177 2.6 2.6 0.00 0.00 0.00 81 1016.0
20260902145541 85 168 1.7 1.7 0.00 0.00 0.00 81 1015.8
20260902145040 84 68 0.9 0.9 0.00 0.00 0.00 81 1015.9
20260902144537 84 150 0.9 1.7 0.00 0.00 0.00 82 1015.9
20260902144038 83 213 0.9 0.9 0.00 0.00 0.00 84 1015.8
20260902143538 83 160 1.7 1.7 0.00 0.00 0.00 84 1015.9
20260902143034 83 185 1.7 2.6 0.00 0.00 0.00 84 1015.8
20260902142529 82 151 0.9 0.9 0.00 0.00 0.00 83 1015.8
20260902142025 82 165 0.0 0.9 0.00 0.00 0.00 84 1016.0
20260902141524 82 9 0.9 0.9 0.00 0.00 0.00 84 1016.0
20260902141020 82 196 0.9 1.7 0.00 0.00 0.00 85 1015.9
20260902140520 82 7 0.0 0.0 0.00 0.00 0.00 85 1015.7
20260902140015 82 157 2.6 2.6 0.00 0.00 0.00 85 1015.8
20260902135509 82 107 1.7 1.7 0.00 0.00 0.00 85 1015.9
20260902135009 82 178 0.9 0.9 0.00 0.00 0.00 85 1015.9
20260902134505 82 136 2.6 2.6 0.00 0.00 0.00 84 1015.9
20260902134000 83 1 0.0 0.9 0.00 0.00 0.00 84 1015.7
20260902133455 83 114 0.0 0.9 0.00 0.00 0.00 83 1015.8
20260902132949 83 141 0.0 0.9 0.00 0.00 0.00 82 1015.8
20260902132444 82 107 0.0 0.0 0.00 0.00 0.00 82 1015.9
20260902131939 82 318 0.9 0.9 0.00 0.00 0.00 84 1015.9
20260902131436 81 124 1.7 1.7 0.00 0.00 0.00 84 1016.1
20260902130935 81 167 1.7 2.6 0.00 0.00 0.00 84 1016.0
20260902130431 81 292 0.0 0.9 0.00 0.00 0.00 84 1015.9
20260902125926 81 172 0.9 1.7 0.00 0.00 0.00 84 1015.9
20260902125422 81 177 0.9 0.9 0.00 0.00 0.00 84 1015.8
20260902124918 80 8 0.0 0.9 0.00 0.00 0.00 85 1015.9
20260902124413 80 137 0.0 0.0 0.00 0.00 0.00 86 1015.8
20260902123908 80 195 0.0 0.9 0.00 0.00 0.00 86 1015.9
20260902123405 80 255 0.0 0.0 0.00 0.00 0.00 87 1015.9
20260902122903 79 24 0.0 0.0 0.00 0.00 0.00 87 1015.9
20260902122359 79 217 0.9 0.9 0.00 0.00 0.00 87 1016.1
20260902121854 79 149 0.9 0.9 0.00 0.00 0.00 88 1015.9
20260902121349 79 246 0.9 0.9 0.00 0.00 0.00 89 1016.0
20260902120844 78 150 0.9 1.7 0.00 0.00 0.00 89 1016.2
20260902120340 78 147 0.0 0.9 0.00 0.00 0.00 90 1016.2
20260902115834 78 347 0.0 0.0 0.00 0.00 0.00 91 1016.1
20260902115331 78 118 0.0 0.0 0.00 0.00 0.00 90 1016.0
20260902114827 78 261 0.0 0.0 0.00 0.00 0.00 91 1015.9
20260902114323 77 334 0.0 0.0 0.00 0.00 0.00 91 1015.8
20260902113823 77 279 0.0 0.0 0.00 0.00 0.00 91 1015.8
20260902113318 77 316 0.9 0.9 0.00 0.00 0.00 91 1015.6
20260902112817 77 39 0.0 0.0 0.00 0.00 0.00 91 1015.6
20260902112314 77 174 0.9 1.7 0.00 0.00 0.00 91 1015.9
20260902111809 77 240 0.0 0.0 0.00 0.00 0.00 91 1015.8
20260902111306 77 240 0.0 0.0 0.00 0.00 0.00 91 1015.8
20260902110801 77 294 0.0 0.0 0.00 0.00 0.00 91 1015.5
20260902110257 77 304 0.0 0.0 0.00 0.00 0.00 91 1015.5
20260902105756 77 233 0.9 0.9 0.00 0.00 0.00 91 1015.4
20260902105252 77 215 0.0 0.0 0.00 0.00 0.00 91 1015.7
20260902104747 77 247 1.7 2.6 0.00 0.00 0.00 91 1015.5
20260902104243 77 250 0.9 0.9 0.00 0.00 0.00 90 1015.4
20260902103743 77 260 0.9 1.7 0.00 0.00 0.00 90 1015.5
20260902103237 77 244 0.0 0.9 0.00 0.00 0.00 90 1015.6
20260902102733 77 5 0.0 0.9 0.00 0.00 0.00 90 1015.6
20260902102230 77 276 0.0 0.0 0.00 0.00 0.00 90 1015.6
20260902101725 77 130 0.9 1.7 0.00 0.00 0.00 90 1015.7
20260902101220 77 84 0.0 0.0 0.00 0.00 0.00 90 1015.5
20260902100719 77 349 0.0 0.0 0.00 0.00 0.00 89 1015.5
20260902100214 77 8 0.0 0.0 0.00 0.00 0.00 89 1015.5
20260902095714 77 328 0.0 0.9 0.00 0.00 0.00 89 1015.5
20260902095208 77 21 0.0 0.0 0.00 0.00 0.00 89 1015.6
20260902094703 77 286 0.9 1.7 0.00 0.00 0.00 90 1015.5
20260902094159 77 291 0.0 0.0 0.00 0.00 0.00 90 1015.4
20260902093658 77 327 0.0 0.9 0.00 0.00 0.00 90 1015.4
20260902093153 77 251 0.0 0.9 0.00 0.00 0.00 90 1015.5
20260902092648 77 345 0.0 0.9 0.00 0.00 0.00 91 1015.4
20260902092143 77 187 0.0 0.0 0.00 0.00 0.00 91 1015.5
20260902091637 77 291 0.0 0.0 0.00 0.00 0.00 90 1015.5
20260902091134 77 98 0.9 0.9 0.00 0.00 0.00 91 1015.4
20260902090630 77 243 0.9 0.9 0.00 0.00 0.00 91 1015.3
20260902090129 77 123 0.9 0.9 0.00 0.00 0.00 91 1015.5
20260902085624 77 264 0.0 0.0 0.00 0.00 0.00 91 1015.6
20260902085119 77 232 0.0 0.9 0.00 0.00 0.00 91 1015.4
20260902084615 77 283 0.0 0.9 0.00 0.00 0.00 91 1015.4
20260902084110 78 331 0.0 0.0 0.00 0.00 0.00 91 1015.3
20260902083606 78 231 0.0 0.0 0.00 0.00 0.00 90 1015.3
20260902083105 78 252 0.0 0.0 0.00 0.00 0.00 90 1015.4
20260902082601 78 335 0.0 0.9 0.00 0.00 0.00 90 1015.2
20260902082057 78 40 0.0 0.0 0.00 0.00 0.00 90 1015.3
20260902081554 78 350 0.0 0.0 0.00 0.00 0.00 90 1015.4
20260902081053 78 280 0.9 0.9 0.00 0.00 0.00 90 1015.2
20260902080548 78 294 0.0 0.0 0.00 0.00 0.00 90 1015.3
20260902080045 78 294 0.0 0.9 0.00 0.00 0.00 90 1015.6
20260902075544 78 238 0.9 0.9 0.00 0.00 0.00 90 1015.5
20260902075041 78 283 0.0 0.9 0.00 0.00 0.00 90 1015.5
20260902074536 78 276 0.0 0.0 0.00 0.00 0.00 90 1015.2
20260902074031 78 345 0.0 0.0 0.00 0.00 0.00 90 1015.4
20260902073526 78 301 0.0 0.0 0.00 0.00 0.00 90 1015.3
20260902073023 78 340 0.9 0.9 0.00 0.00 0.00 89 1015.4
20260902072518 78 353 0.0 0.0 0.00 0.00 0.00 89 1015.7
20260902072015 78 354 0.0 0.0 0.00 0.00 0.00 89 1015.4
20260902071514 78 256 0.9 0.9 0.00 0.00 0.00 89 1015.6
20260902071010 78 336 0.9 0.9 0.00 0.00 0.00 89 1015.5
20260902070506 78 40 0.0 0.0 0.00 0.00 0.00 90 1015.6
20260902070007 78 292 0.9 0.9 0.00 0.00 0.00 90 1015.9
20260902065500 78 57 0.0 0.0 0.00 0.00 0.00 89 1015.7
20260902064955 78 346 0.0 0.0 0.00 0.00 0.00 89 1015.6
20260902064450 78 222 0.0 0.9 0.00 0.00 0.00 89 1015.9
20260902063946 78 265 0.9 0.9 0.00 0.00 0.00 89 1015.7
20260902063445 78 345 0.0 0.0 0.00 0.00 0.00 89 1015.7
20260902062941 78 73 0.9 1.7 0.00 0.00 0.00 89 1015.7
20260902062440 78 182 0.9 0.9 0.00 0.00 0.00 89 1015.9
20260902061935 78 284 0.0 0.0 0.00 0.00 0.00 90 1015.8
20260902061430 78 285 0.9 0.9 0.00 0.00 0.00 89 1015.8
20260902060926 78 338 0.0 0.0 0.00 0.00 0.00 89 1016.0
20260902060422 78 322 0.0 0.0 0.00 0.00 0.00 89 1016.0
20260902055918 78 7 0.9 0.9 0.00 0.00 0.00 88 1016.2
20260902055414 79 289 0.0 0.0 0.00 0.00 0.00 88 1015.8
20260902054909 79 288 0.0 0.9 0.00 0.00 0.00 87 1015.9
20260902054404 79 352 0.0 0.0 0.00 0.00 0.00 88 1015.9
20260902053859 79 177 1.7 1.7 0.00 0.00 0.00 88 1016.1
20260902053354 79 270 0.0 0.0 0.00 0.00 0.00 89 1016.0
20260902052853 78 295 0.0 0.0 0.00 0.00 0.00 89 1016.1
20260902052349 79 352 0.0 0.0 0.00 0.00 0.00 88 1016.1
20260902051844 79 286 0.0 0.9 0.00 0.00 0.00 88 1016.1
20260902051343 79 3 0.0 0.0 0.00 0.00 0.00 89 1016.0
20260902050837 78 6 0.0 0.9 0.00 0.00 0.00 88 1016.0
20260902050331 79 354 0.0 0.0 0.00 0.00 0.00 88 1015.9
20260902045826 79 358 0.0 0.9 0.00 0.00 0.00 87 1016.1
20260902045322 79 351 0.0 0.0 0.00 0.00 0.00 87 1016.0
20260902044819 79 13 0.0 0.9 0.00 0.00 0.00 87 1016.0
20260902044314 79 49 0.9 0.9 0.00 0.00 0.00 87 1015.9
20260902043814 80 281 0.9 0.9 0.00 0.00 0.00 87 1015.8
20260902043309 80 339 0.9 0.9 0.00 0.00 0.00 86 1015.7
20260902042809 80 270 0.9 0.9 0.00 0.00 0.00 86 1015.6
20260902042308 80 178 0.9 1.7 0.00 0.00 0.00 86 1015.5
20260902041759 80 319 0.0 0.0 0.00 0.00 0.00 86 1015.5
20260902041259 80 4 0.0 0.0 0.00 0.00 0.00 86 1015.2
20260902040758 80 147 0.9 1.7 0.00 0.00 0.00 85 1015.5
20260902040254 81 345 0.9 0.9 0.00 0.00 0.00 84 1015.5
20260902035752 80 186 2.6 2.6 0.00 0.00 0.00 84 1015.2
20260902035248 80 72 0.9 0.9 0.00 0.00 0.00 85 1015.3
20260902034746 80 14 0.0 0.0 0.00 0.00 0.00 86 1015.1
20260902034242 80 218 0.0 0.9 0.00 0.00 0.00 85 1015.3
20260902033739 80 259 0.0 0.0 0.00 0.00 0.00 86 1015.4
20260902033235 80 334 0.0 0.0 0.00 0.00 0.00 86 1015.3
20260902032733 80 126 0.0 0.0 0.00 0.00 0.00 85 1015.6
20260902032228 81 22 0.0 0.0 0.00 0.00 0.00 86 1015.4
20260902031723 81 192 1.7 4.3 0.00 0.00 0.00 84 1015.5
20260902031219 81 64 0.0 0.0 0.00 0.00 0.00 86 1015.5
20260902030714 81 102 0.9 0.9 0.00 0.00 0.00 85 1015.2
20260902030213 81 320 0.0 0.0 0.00 0.00 0.00 86 1015.2
20260902025713 81 256 0.9 0.9 0.00 0.00 0.00 86 1015.3
20260902025208 81 296 0.0 0.0 0.00 0.00 0.00 87 1015.1
20260902024703 81 346 0.0 0.0 0.00 0.00 0.00 86 1015.2
20260902024158 82 31 1.7 1.7 0.00 0.00 0.00 86 1015.1
20260902023654 82 197 2.6 2.6 0.00 0.00 0.00 86 1015.1
20260902023149 82 248 0.0 0.0 0.00 0.00 0.00 86 1015.1
20260902022648 82 195 2.6 2.6 0.00 0.00 0.00 86 1015.0
20260902022144 82 322 0.0 0.0 0.00 0.00 0.00 87 1015.3
20260902021639 82 11 0.0 0.9 0.00 0.00 0.00 87 1015.2
20260902021134 81 159 0.0 0.0 0.00 0.00 0.00 88 1015.0
20260902020631 82 350 0.0 0.0 0.00 0.00 0.00 88 1014.9
20260902020126 82 274 0.9 0.9 0.00 0.00 0.00 87 1014.9
20260902015621 82 291 0.0 0.0 0.00 0.00 0.00 86 1014.9
20260902015118 83 29 0.0 0.9 0.00 0.00 0.00 86 1014.6
20260902014613 83 221 0.0 0.0 0.00 0.00 0.00 86 1014.8
20260902014108 83 171 0.9 1.7 0.00 0.00 0.00 85 1014.5
20260902013608 83 179 2.6 2.6 0.00 0.00 0.00 86 1014.4
20260902013104 83 275 0.9 0.9 0.00 0.00 0.00 86 1014.5
20260902012559 83 197 0.9 0.9 0.00 0.00 0.00 86 1014.2
20260902012054 83 232 0.9 0.9 0.00 0.00 0.00 86 1014.5
20260902011550 84 212 0.9 1.7 0.00 0.00 0.00 86 1014.4
20260902011049 84 205 0.9 0.9 0.00 0.00 0.00 86 1014.4
20260902010548 84 220 1.7 2.6 0.00 0.00 0.00 85 1014.4
20260902010045 84 222 0.9 1.7 0.00 0.00 0.00 85 1014.4
20260902005542 84 164 3.5 4.3 0.00 0.00 0.00 86 1014.2
20260902005039 84 184 2.6 4.3 0.00 0.00 0.00 86 1014.1
20260902004538 84 178 0.9 1.7 0.00 0.00 0.00 85 1014.3
20260902004033 84 212 1.7 2.6 0.00 0.00 0.00 85 1014.5
20260902003528 84 172 2.6 2.6 0.00 0.00 0.00 86 1014.1
20260902003024 84 215 1.7 1.7 0.00 0.00 0.00 86 1014.2
20260902002520 84 179 1.7 1.7 0.00 0.00 0.00 85 1014.1
20260902002014 84 201 0.9 0.9 0.00 0.00 0.00 85 1014.4
20260902001509 84 254 0.0 0.9 0.00 0.00 0.00 84 1014.2
20260902001004 85 141 1.7 1.7 0.00 0.00 0.00 84 1014.2
20260902000459 85 146 2.6 2.6 0.00 0.00 0.00 84 1014.0
20260901235954 85 241 1.7 1.7 0.00 0.00 0.00 84 1014.0
20260901235449 85 189 2.6 2.6 0.00 0.00 0.00 83 1014.3
20260901234944 85 180 1.7 2.6 0.00 0.00 0.00 83 1014.1
20260901234437 86 212 0.9 0.9 0.00 0.00 0.00 82 1014.3
20260901233933 86 211 0.9 0.9 0.00 0.00 0.00 81 1014.1
20260901233428 86 198 1.7 1.7 0.00 0.00 0.00 80 1014.1
20260901232925 86 216 2.6 2.6 0.00 0.00 0.00 80 1014.1